Pittsburg, KS

5:44 AM CDT on August 18, 2017 (GMT -0500)
Atkinson Municipal

Weather History for KPTS - August, 2013

Change the Weather History Date:

Saturday, August 10, 2013

  Actual Average (KJLN) Record (KJLN)
Temperature  
Mean Temperature 75 °F -  
Max Temperature 82 °F 89 °F 101 °F (1980)
Min Temperature 68 °F 67 °F 55 °F (1965)
Cooling Degree Days 10    
Growing Degree Days 25 (Base 50)    
Moisture  
Dew Point 69 °F    
Average Humidity 74    
Maximum Humidity 100    
Minimum Humidity 56    
Precipitation  
Precipitation 0.03 in - - ()
Sea Level Pressure  
Sea Level Pressure 30.12 in    
Wind  
Wind Speed 7 mph (ENE)    
Max Wind Speed 13 mph    
Max Gust Speed 17 mph    
Visibility 8 miles    
Events      
Averages and records for this station are not official NWS values.
T = Trace of Precipitation, MM = Missing Value Source: NWS Daily Summary

Daily Weather History Graph

Daily Weather History Graph

Search for Another Location

Airport or City:

Trip Planner

Search our weather history database for the weather conditions in past years. The results will help you decide how hot, cold, wet, or windy it might be!

Date:

Astronomy

Aug. 10, 2013 Rise Set
Actual Time 6:30 AM CDT 8:16 PM CDT
Civil Twilight 6:02 AM CDT 8:44 PM CDT
Nautical Twilight 5:28 AM CDT 9:18 PM CDT
Astronomical Twilight 4:52 AM CDT 9:55 PM CDT
Moon 10:12 AM CDT (8/10) 10:05 PM CDT (8/10)
Length of Visible Light 14h 42m
Length of Day
13h 45m
Waxing Crescent, 14% of the Moon is Illuminated
Aug 10
Waxing Crescent
Aug 14
First Quarter
Aug 20
Full
Aug 28
Last Quarter
Sep 5
New

Hourly Weather History & Observations

Time (CDT) Temp. Heat Index Dew Point Humidity Pressure Visibility Wind Dir Wind Speed Gust Speed Precip Events Conditions
12:15 AM 68.9 °F - - N/A% 30.10 in 7.0 mi NNE 5.8 mph - N/A   Clear
12:35 AM 70.7 °F - - N/A% 30.11 in 5.0 mi NNE 4.6 mph - N/A   Clear
12:55 AM 70.9 °F - - N/A% 30.10 in 5.0 mi NE 5.8 mph - 0.01 in   Clear
1:15 AM 70.9 °F - - N/A% 30.10 in 1.2 mi NE 5.8 mph - N/A   Overcast
1:35 AM 70.9 °F - - N/A% 30.10 in 1.8 mi NNE 8.1 mph - N/A   Overcast
1:55 AM 70.9 °F - - N/A% 30.10 in 0.8 mi NNE 9.2 mph - N/A   Overcast
2:15 AM 70.9 °F - - N/A% 30.10 in 2.0 mi NE 6.9 mph - N/A   Overcast
2:35 AM 70.9 °F - - N/A% 30.10 in 4.0 mi NNE 6.9 mph - N/A   Overcast
2:55 AM 70.9 °F - - N/A% 30.10 in 4.0 mi NE 4.6 mph - N/A   Mostly Cloudy
3:15 AM 70.9 °F - - N/A% 30.10 in 5.0 mi NE 4.6 mph - N/A   Clear
3:35 AM 70.9 °F - - N/A% 30.10 in 5.0 mi NNE 6.9 mph - N/A   Clear
3:55 AM 70.9 °F - - N/A% 30.10 in 7.0 mi NNE 6.9 mph - N/A   Clear
4:15 AM 70.0 °F - - N/A% 30.10 in 5.0 mi NE 5.8 mph - N/A   Clear
4:35 AM 69.1 °F - - N/A% 30.10 in 7.0 mi NE 5.8 mph - N/A   Clear
4:55 AM 68.7 °F - - N/A% 30.11 in 7.0 mi NE 5.8 mph - N/A   Clear
5:15 AM 68.4 °F - - N/A% 30.10 in 7.0 mi NE 5.8 mph - N/A   Clear
5:35 AM 68.4 °F - - N/A% 30.10 in 7.0 mi NNE 4.6 mph - N/A   Clear
5:55 AM 68.4 °F - - N/A% 30.10 in 7.0 mi NNE 4.6 mph - N/A   Clear
6:15 AM 68.4 °F - - N/A% 30.11 in 7.0 mi NNE 4.6 mph - 0.01 in   Clear
6:35 AM 68.4 °F - - N/A% 30.12 in 5.0 mi NE 6.9 mph - 0.01 in   Clear
6:55 AM 68.4 °F - - N/A% 30.12 in 5.0 mi NE 6.9 mph - 0.01 in   Clear
7:15 AM 68.4 °F - - N/A% 30.13 in 7.0 mi ENE 6.9 mph - N/A   Clear
7:35 AM - - - N/A% 30.14 in 10.0 mi ENE 6.9 mph - N/A   Clear
7:55 AM 70.9 °F - 71.1 °F 100% 30.14 in 10.0 mi ENE 6.9 mph - N/A   Clear
8:15 AM 70.9 °F - 71.1 °F 100% 30.15 in 10.0 mi ENE 10.4 mph - N/A   Clear
8:35 AM 70.9 °F - 71.1 °F 100% 30.15 in 10.0 mi East 8.1 mph - N/A   Scattered Clouds
8:55 AM 70.9 °F - 71.1 °F 100% 30.15 in 10.0 mi ENE 6.9 mph - N/A   Scattered Clouds
9:15 AM 72.0 °F - 72.3 °F 100% 30.16 in 10.0 mi ENE 8.1 mph - N/A   Scattered Clouds
9:35 AM 74.5 °F - 74.5 °F 100% 30.15 in 10.0 mi ENE 11.5 mph - N/A   Clear
9:55 AM 76.1 °F - 75.0 °F 96% 30.15 in 10.0 mi East 9.2 mph - N/A   Clear
10:15 AM 76.1 °F - 73.0 °F 90% 30.16 in 10.0 mi East 12.7 mph 17.3 mph N/A   Clear
10:35 AM 76.1 °F - 70.9 °F 84% 30.16 in 10.0 mi East 10.4 mph 16.1 mph N/A   Scattered Clouds
10:55 AM 77.4 °F - 69.6 °F 77% 30.17 in 10.0 mi East 9.2 mph - N/A   Clear
11:15 AM 77.5 °F - 67.6 °F 71% 30.17 in 10.0 mi East 6.9 mph - N/A   Clear
11:35 AM 78.4 °F - 67.5 °F 69% 30.16 in 10.0 mi East 8.1 mph - N/A   Clear
11:55 AM 78.4 °F - 66.6 °F 67% 30.16 in 10.0 mi East 10.4 mph - N/A   Scattered Clouds
12:15 PM 78.4 °F - 65.7 °F 65% 30.16 in 10.0 mi ENE 9.2 mph 17.3 mph 0.01 in   Scattered Clouds
12:35 PM 80.1 °F 82.1 °F 66.2 °F 62% 30.15 in 10.0 mi East 10.4 mph - 0.01 in   Clear
12:55 PM 81.0 °F 83.0 °F 65.8 °F 60% 30.15 in 10.0 mi ENE 12.7 mph 16.1 mph 0.01 in   Scattered Clouds
1:15 PM 81.0 °F 82.6 °F 64.6 °F 57% 30.15 in 10.0 mi NE 9.2 mph - N/A   Clear
1:35 PM 81.3 °F 83.2 °F 65.3 °F 58% 30.14 in 10.0 mi East 10.4 mph - N/A   Clear
1:55 PM 81.5 °F 83.7 °F 66.4 °F 60% 30.14 in 10.0 mi NE 10.4 mph - N/A   Scattered Clouds
2:15 PM 81.1 °F 83.1 °F 65.5 °F 59% 30.14 in 10.0 mi East 6.9 mph - N/A   Scattered Clouds
2:35 PM 81.9 °F 84.1 °F 66.2 °F 59% 30.14 in 10.0 mi East 6.9 mph - N/A   Scattered Clouds
2:55 PM 82.0 °F 84.3 °F 66.2 °F 59% 30.14 in 10.0 mi ENE 11.5 mph 17.3 mph N/A   Scattered Clouds
3:15 PM 81.9 °F 83.9 °F 65.8 °F 58% 30.12 in 10.0 mi NE 8.1 mph - N/A   Scattered Clouds
3:35 PM 82.4 °F 84.4 °F 65.8 °F 57% 30.12 in 10.0 mi East 5.8 mph - N/A   Scattered Clouds
3:55 PM 82.8 °F 84.9 °F 66.2 °F 57% 30.11 in 10.0 mi ESE 9.2 mph - N/A   Scattered Clouds
4:15 PM 82.6 °F 84.5 °F 65.7 °F 56% 30.10 in 10.0 mi ENE 10.4 mph - N/A   Scattered Clouds
4:35 PM 81.9 °F 83.7 °F 65.1 °F 57% 30.10 in 10.0 mi ENE 6.9 mph 17.3 mph N/A   Scattered Clouds
4:55 PM 81.9 °F 83.7 °F 65.3 °F 57% 30.09 in 10.0 mi ENE 5.8 mph - N/A   Scattered Clouds
5:15 PM 82.2 °F 84.4 °F 66.0 °F 58% 30.09 in 10.0 mi East 9.2 mph - N/A   Scattered Clouds
5:35 PM 82.9 °F 85.0 °F 65.7 °F 56% 30.09 in 10.0 mi ENE 9.2 mph - N/A   Scattered Clouds
5:55 PM 82.4 °F 84.2 °F 65.1 °F 56% 30.09 in 10.0 mi NE 6.9 mph - N/A   Scattered Clouds
6:15 PM 82.4 °F 84.2 °F 65.1 °F 56% 30.08 in 10.0 mi NE 8.1 mph - N/A   Clear
6:35 PM 82.0 °F 83.9 °F 65.5 °F 57% 30.08 in 10.0 mi NE 8.1 mph - N/A   Clear
6:55 PM 81.1 °F 83.2 °F 66.2 °F 60% 30.07 in 10.0 mi NE 5.8 mph - N/A   Clear
7:15 PM 81.0 °F 83.8 °F 68.2 °F 65% 30.07 in 10.0 mi NE 4.6 mph - N/A   Clear
7:35 PM 81.0 °F 84.1 °F 69.1 °F 67% 30.08 in 10.0 mi ENE 6.9 mph - N/A   Scattered Clouds
7:55 PM 79.5 °F - 67.8 °F 67% 30.08 in 10.0 mi ENE 5.8 mph - N/A   Clear
8:15 PM 78.3 °F - 68.7 °F 72% 30.09 in 10.0 mi NE 3.5 mph - N/A   Clear
8:35 PM 76.6 °F - 70.2 °F 80% 30.09 in 10.0 mi ENE 3.5 mph - N/A   Clear
8:55 PM 76.1 °F - 71.2 °F 85% 30.09 in 10.0 mi ENE 3.5 mph - N/A   Clear
9:15 PM 76.1 °F - 71.4 °F 85% 30.09 in 10.0 mi ENE 4.6 mph - N/A   Clear
9:35 PM 76.1 °F - 71.6 °F 86% 30.09 in 10.0 mi NE 4.6 mph - N/A   Clear
9:55 PM 76.1 °F - 72.9 °F 90% 30.10 in 10.0 mi ENE 3.5 mph - N/A   Clear
10:15 PM 76.1 °F - 72.5 °F 89% 30.11 in 10.0 mi ENE 4.6 mph - N/A   Clear
10:35 PM 76.1 °F - 71.8 °F 86% 30.12 in 10.0 mi East 5.8 mph - N/A   Clear
10:55 PM 76.1 °F - 72.5 °F 89% 30.12 in 10.0 mi East 5.8 mph - N/A   Mostly Cloudy
11:15 PM 76.1 °F - 72.9 °F 90% 30.12 in 10.0 mi East 4.6 mph - N/A   Scattered Clouds
11:35 PM 76.1 °F - 74.1 °F 94% 30.12 in 7.0 mi East 5.8 mph - N/A   Clear
11:55 PM 76.1 °F - 74.7 °F 95% 30.12 in 10.0 mi East 4.6 mph - N/A   Scattered Clouds